Weather History for Alexandroupoli, Greece

Change the Weather History Date:

Wednesday, March 12, 2014

  Actual Average Record
Temperature  
Mean Temperature 48 °F -  
Max Temperature 62 °F 58 °F 62 °F (2008)
Min Temperature 35 °F 41 °F 26 °F (2005)
Degree Days  
Heating Degree Days 16    
Moisture  
Dew Point 32 °F    
Average Humidity 55    
Maximum Humidity 81    
Minimum Humidity 14    
Precipitation  
Precipitation 0.00 in 0.06 in - ()
Sea Level Pressure  
Sea Level Pressure 30.21 in    
Wind  
Wind Speed 5 mph ()    
Max Wind Speed 20 mph    
Max Gust Speed -    
Visibility 6.2 miles    
Events      
Averages and records for this station are not official NWS values.
T = Trace of Precipitation, MM = Missing Value Source: Averaged Metar Reports

Daily Weather History Graph

Daily Weather History Graph

Search for Another Location

Airport:

Trip Planner

Search our weather history database for the weather conditions in past years. The results will help you decide how hot, cold, wet, or windy it might be!

Date:

Astronomy

Mar. 12, 2014 Rise Set
Actual Time 6:33 AM EET 6:19 PM EET
Civil Twilight 6:05 AM EET 6:46 PM EET
Nautical Twilight 5:34 AM EET 7:18 PM EET
Astronomical Twilight 5:02 AM EET 7:50 PM EET
Moon 2:31 PM EET (3/12) 3:54 AM EET (3/12)
Length of Visible Light 12h 40m
Length of Day
11h 46m
Waxing Gibbous, 83% of the Moon is Illuminated
Mar 12
Waxing Gibbous
Mar 16
Full
Mar 24
Last Quarter
Mar 30
New
Apr 7
First Quarter

Hourly Weather History & Observations

Time (EET) Temp. Windchill Dew Point Humidity Pressure Visibility Wind Dir Wind Speed Gust Speed Precip Events Conditions
12:20 AM 41.0 °F - 35.6 °F 81% 30.18 in 6.2 mi Calm Calm - N/A   Mostly Cloudy
12:50 AM 41.0 °F - 35.6 °F 81% 30.18 in 6.2 mi Calm Calm - N/A   Mostly Cloudy
1:20 AM 41.0 °F - 35.6 °F 81% 30.18 in 6.2 mi Calm Calm - N/A   Mostly Cloudy
1:50 AM 41.0 °F - 33.8 °F 76% 30.18 in 6.2 mi Calm Calm - N/A   Mostly Cloudy
2:00 AM 41 °F - 34 °F 68% 30.19 in 6 mi Calm Calm - -   Scattered Clouds
2:20 AM 41.0 °F - 33.8 °F 76% 30.18 in 6.2 mi Calm Calm - N/A   Mostly Cloudy
2:50 AM 39.2 °F - 33.8 °F 81% 30.15 in 6.2 mi Calm Calm - N/A   Scattered Clouds
3:20 AM 39.2 °F - 33.8 °F 81% 30.15 in 6.2 mi Calm Calm - N/A   Scattered Clouds
3:50 AM 39.2 °F - 33.8 °F 81% 30.15 in 6.2 mi Calm Calm - N/A   Scattered Clouds
4:20 AM 39.2 °F - 33.8 °F 81% 30.15 in 6.2 mi Calm Calm - N/A   Partly Cloudy
4:50 AM 37.4 °F - 30.2 °F 75% 30.15 in 6.2 mi Calm Calm - N/A   Partly Cloudy
5:00 AM 37 °F - 31 °F 70% 30.17 in 6 mi Calm Calm - -   Scattered Clouds
5:20 AM 37.4 °F - 30.2 °F 75% 30.15 in 6.2 mi Calm Calm - N/A   Partly Cloudy
5:50 AM 35.6 °F - 30.2 °F 81% 30.15 in 6.2 mi Calm Calm - N/A   Partly Cloudy
6:20 AM 35.6 °F - 30.2 °F 81% 30.15 in 6.2 mi Calm Calm - N/A   Partly Cloudy
6:50 AM 35.6 °F - 30.2 °F 81% 30.15 in 6.2 mi Calm Calm - N/A   Partly Cloudy
7:20 AM 35.6 °F - 30.2 °F 81% 30.15 in 6.2 mi Calm Calm - N/A   Partly Cloudy
7:50 AM 37.4 °F - 32.0 °F 81% 30.18 in - Calm Calm - N/A   Clear
8:00 AM 37 °F - 32 °F 76% 30.19 in 6 mi Calm Calm - -  
8:20 AM 39.2 °F - 32.0 °F 75% 30.21 in - Calm Calm - N/A   Clear
8:50 AM 41.0 °F 34.3 °F 35.6 °F 81% 30.21 in - North 11.5 mph - N/A   Clear
9:20 AM 42.8 °F 35.1 °F 35.6 °F 76% 30.21 in - NNW 16.1 mph - N/A   Clear
9:50 AM 53.6 °F - 28.4 °F 38% 30.21 in - NNW 16.1 mph - N/A   Clear
10:20 AM 59.0 °F - 28.4 °F 31% 30.21 in - NNW 19.6 mph - N/A   Clear
10:50 AM 59.0 °F - 21.2 °F 23% 30.21 in 6.2 mi North 18.4 mph - N/A   Partly Cloudy
11:00 AM 58 °F - 22 °F 14% 30.22 in 6 mi North 18.4 mph - -   Scattered Clouds
11:20 AM 59.0 °F - 21.2 °F 23% 30.21 in 6.2 mi NNW 17.3 mph - N/A   Partly Cloudy
11:50 AM 59.0 °F - 23.0 °F 25% 30.21 in 6.2 mi NNW 16.1 mph - N/A   Partly Cloudy
12:20 PM 60.8 °F - 21.2 °F 22% 30.21 in 6.2 mi North 19.6 mph - N/A   Partly Cloudy
12:50 PM 60.8 °F - 24.8 °F 25% 30.21 in - North 19.6 mph - N/A   Clear
1:20 PM 60.8 °F - 24.8 °F 25% 30.21 in - North 19.6 mph - N/A   Clear
1:50 PM 60.8 °F - 26.6 °F 27% 30.18 in - NNW 17.3 mph - N/A   Clear
2:00 PM 61 °F - 26 °F 16% 30.20 in 6 mi NNW 17.3 mph - -  
2:20 PM 60.8 °F - 26.6 °F 27% 30.18 in - North 17.3 mph - N/A   Clear
2:50 PM 60.8 °F - 28.4 °F 29% 30.18 in - NNW 13.8 mph - N/A   Clear
3:20 PM 60.8 °F - 28.4 °F 29% 30.18 in - NNW 17.3 mph - N/A   Clear
3:50 PM 60.8 °F - 32.0 °F 34% 30.18 in 6.2 mi North 18.4 mph - N/A   Partly Cloudy
4:20 PM 59.0 °F - 30.2 °F 34% 30.18 in 6.2 mi North 15.0 mph - N/A   Partly Cloudy
4:50 PM 59.0 °F - 42.8 °F 55% 30.21 in 6.2 mi NNE 15.0 mph - N/A   Partly Cloudy
5:00 PM 59 °F - 43 °F 43% 30.21 in 6 mi NNE 15.0 mph - -   Scattered Clouds
5:20 PM 59.0 °F - 42.8 °F 55% 30.21 in 6.2 mi North 11.5 mph - N/A   Partly Cloudy
5:50 PM 57.2 °F - 41.0 °F 55% 30.21 in 6.2 mi North 12.7 mph - N/A   Partly Cloudy
6:20 PM 57.2 °F - 41.0 °F 55% 30.21 in 6.2 mi North 6.9 mph - N/A   Partly Cloudy
6:50 PM 55.4 °F - 39.2 °F 54% 30.24 in 6.2 mi NNW 6.9 mph - N/A   Partly Cloudy
7:20 PM 53.6 °F - 37.4 °F 54% 30.24 in 6.2 mi NNW 5.8 mph - N/A   Partly Cloudy
7:50 PM 48.2 °F - 30.2 °F 50% 30.27 in 6.2 mi NNE 9.2 mph - N/A   Partly Cloudy
8:00 PM 47 °F - 30 °F 39% 30.27 in 6 mi NNE 9.2 mph - -   Scattered Clouds
8:20 PM 48.2 °F - 30.2 °F 50% 30.27 in 6.2 mi NNE 9.2 mph - N/A   Partly Cloudy
8:50 PM 48.2 °F - 30.2 °F 50% 30.27 in 6.2 mi NE 6.9 mph - N/A   Partly Cloudy
9:20 PM 48.2 °F - 30.2 °F 50% 30.27 in 6.2 mi NE 5.8 mph - N/A   Partly Cloudy
9:50 PM 46.4 °F 43.5 °F 33.8 °F 62% 30.30 in 6.2 mi NE 5.8 mph - N/A   Partly Cloudy
10:20 PM 46.4 °F 44.3 °F 33.8 °F 62% 30.30 in 6.2 mi NNE 4.6 mph - N/A   Partly Cloudy
10:50 PM 46.4 °F - 32.0 °F 57% 30.30 in - Calm Calm - N/A   Clear
11:00 PM 46 °F - 32 °F 46% 30.32 in 6 mi Calm Calm - -   Scattered Clouds
11:20 PM 46.4 °F - 32.0 °F 57% 30.30 in - Calm Calm - N/A   Clear
11:50 PM 44.6 °F 43.1 °F 32.0 °F 61% 30.33 in - Variable 3.5 mph - N/A   Clear